עמוד ראשי
METAR-TAF:

METAR-TAF

שדות תעופה :

מצ'אלה, אקוודור

קו רוחב: 03-26-07S, קו אורך: 079-58-40W, גובה: 52מטר

תצפית מזג אוויר נוכחית

הדו"ח נערך לפני 47דקות, בשעה 16:00 UTC
רוח 2קשר מכיוון מזרח
טמפרטורת 28 צלסיוס
לחות 79%
לחץ 1012 hPa
ראות 10 קילומטר או יותר
עננים בינוניים בגובה 8000רגל

METAR: SERO 241600Z 09002KT 9999 BKN080 28/24 Q1012

זמן: 11:47 (16:47 UTC)


TAF: חסר

תצפיות ותחזיות מזג אוויר לגבי יותר מ- 4,000 שדות תעופה ברחבי העולם. דוחות METAR ו- TAF.

התחנות הזמינות מסומנות בנקודות צהובות ואדומות על גבי המפה.

העבר את העכבר לנקודה הצבעונית על מנת לראות את שם התחנה.

לאחר מכן, לחץ כדי לראות את תוכן ואת תחזיות מזג האוויר.

כדי לשנות את המפה: לחץ על הכפתורים הירוקים עם הפלוס השחור כדי להתקרב; על הכפתור הירוק עם המקף כדי להתרחק; או בחיצים הירוקים למפות סמוכות.


METAR-TAF: